Weather History for Hollywood, FL

Change the Weather History Date:

Wednesday, February 12, 2014

  Actual Average (KFLL) Record (KFLL)
Temperature  
Mean Temperature 72 °F 71 °F  
Max Temperature 82 °F 78 °F 89 °F (1913)
Min Temperature 63 °F 64 °F 36 °F (1919)
Degree Days  
Heating Degree Days 0 1  
Month to date heating degree days 12  
Since 1 July heating degree days 92  
Cooling Degree Days 8 7  
Month to date cooling degree days 75  
Year to date cooling degree days 245  
Growing Degree Days 22 (Base 50)    
Moisture  
Dew Point 66 °F    
Average Humidity 86    
Maximum Humidity 100    
Minimum Humidity 62    
Precipitation  
Precipitation 0.84 in 0.14 in 2.45 in (1963)
Month to date precipitation 1.35  
Year to date precipitation 4.98  
Snow  
Snow 0.00 in - - ()
Month to date snowfall  
Since 1 July snowfall  
Snow Depth -    
Sea Level Pressure  
Sea Level Pressure 29.93 in    
Wind  
Wind Speed 7 mph (South)    
Max Wind Speed 23 mph    
Max Gust Speed 31 mph    
Visibility 9 miles    
Events Rain , Thunderstorm    
T = Trace of Precipitation, MM = Missing Value Source: NWS Daily Summary

Daily Weather History Graph

Daily Weather History Graph

Search for Another Location

Airport:

Trip Planner

Search our weather history database for the weather conditions in past years. The results will help you decide how hot, cold, wet, or windy it might be!

Date:

Astronomy

Feb. 12, 2014 Rise Set
Actual Time 6:58 AM EST 6:12 PM EST
Civil Twilight 6:34 AM EST 6:35 PM EST
Nautical Twilight 6:07 AM EST 7:03 PM EST
Astronomical Twilight 5:40 AM EST 7:30 PM EST
Moon 4:28 PM EST (2/12) 5:09 AM EST (2/12)
Length of Visible Light 12h 00m
Length of Day
11h 13m
Waxing Gibbous, 95% of the Moon is Illuminated
Feb 12
Waxing Gibbous
Feb 14
Full
Feb 22
Last Quarter
Mar 1
New
Mar 8
First Quarter

Hourly Weather History & Observations

Time (EST) Temp. Heat Index Dew Point Humidity Pressure Visibility Wind Dir Wind Speed Gust Speed Precip Events Conditions
12:53 AM 68.0 °F - 66.0 °F 93% 30.05 in 10.0 mi NW 4.6 mph - N/A   Scattered Clouds
1:53 AM 66.9 °F - 64.0 °F 90% 30.04 in 10.0 mi NNW 5.8 mph - N/A   Partly Cloudy
2:53 AM 64.9 °F - 63.0 °F 93% 30.02 in 10.0 mi Calm Calm - N/A   Clear
3:53 AM 64.0 °F - 62.1 °F 93% 30.01 in 10.0 mi East 3.5 mph - N/A   Clear
4:53 AM 63.0 °F - 62.1 °F 97% 30.00 in 10.0 mi Calm Calm - N/A   Clear
5:53 AM 63.0 °F - 62.1 °F 97% 30.01 in 10.0 mi Calm Calm - N/A   Clear
6:53 AM 63.0 °F - 63.0 °F 100% 30.01 in 10.0 mi Calm Calm - N/A   Partly Cloudy
7:53 AM 64.9 °F - 64.0 °F 97% 30.03 in 10.0 mi Calm Calm - N/A   Scattered Clouds
8:53 AM 72.0 °F - 66.0 °F 81% 30.04 in 10.0 mi Calm Calm - N/A   Partly Cloudy
9:53 AM 79.0 °F - 66.0 °F 64% 30.03 in 10.0 mi SSE 12.7 mph - N/A   Partly Cloudy
10:53 AM 79.0 °F - 66.0 °F 64% 30.01 in 10.0 mi SSE 15.0 mph - N/A   Mostly Cloudy
11:53 AM 80.1 °F 82.3 °F 66.9 °F 64% 29.99 in 10.0 mi SE 17.3 mph 20.7 mph N/A   Mostly Cloudy
12:53 PM 82.0 °F 84.9 °F 68.0 °F 62% 29.95 in 10.0 mi SE 19.6 mph 24.2 mph N/A   Scattered Clouds
1:53 PM 81.0 °F 83.3 °F 66.9 °F 62% 29.91 in 10.0 mi SSE 18.4 mph 25.3 mph N/A   Scattered Clouds
2:53 PM 81.0 °F 83.3 °F 66.9 °F 62% 29.88 in 10.0 mi SSE 16.1 mph - N/A   Scattered Clouds
3:53 PM 77.0 °F - 68.0 °F 74% 29.86 in 10.0 mi SSE 12.7 mph 24.2 mph N/A   Scattered Clouds
4:42 PM 77.0 °F - 69.1 °F 76% 29.87 in 10.0 mi SSE 13.8 mph 21.9 mph N/A Thunderstorm Partly Cloudy
4:50 PM 77.0 °F - 69.8 °F 78% 29.87 in 10.0 mi SSE 18.4 mph 21.9 mph N/A Thunderstorm Thunderstorm
4:53 PM 75.9 °F - 69.1 °F 79% 29.88 in 3.0 mi SSE 16.1 mph 26.5 mph 0.06 in Rain , Thunderstorm Light Thunderstorms and Rain
4:56 PM 73.9 °F - 69.1 °F 85% 29.89 in 1.5 mi South 23.0 mph 31.1 mph 0.07 in Rain , Thunderstorm Heavy Thunderstorms and Rain
5:05 PM 70.0 °F - 64.9 °F 84% 29.88 in 3.0 mi South 4.6 mph - 0.10 in Rain , Thunderstorm Light Thunderstorms and Rain
5:16 PM 72.0 °F - 69.1 °F 91% 29.88 in 10.0 mi SSE 16.1 mph 23.0 mph 0.10 in   Overcast
5:53 PM 72.0 °F - 70.0 °F 93% 29.88 in 10.0 mi SSE 11.5 mph - 0.10 in   Overcast
6:53 PM 72.0 °F - 70.0 °F 93% 29.86 in 10.0 mi South 8.1 mph - N/A   Scattered Clouds
7:53 PM 72.0 °F - 69.1 °F 91% 29.87 in 10.0 mi South 4.6 mph - N/A   Clear
8:53 PM 71.1 °F - 70.0 °F 96% 29.87 in 10.0 mi Calm Calm - N/A   Partly Cloudy
9:24 PM 72.0 °F - 70.0 °F 93% 29.86 in 10.0 mi Calm Calm - N/A Thunderstorm Scattered Clouds
9:39 PM 71.1 °F - 69.1 °F 93% 29.88 in 2.5 mi South 12.7 mph 17.3 mph 0.14 in Rain , Thunderstorm Heavy Thunderstorms and Rain
9:53 PM 69.1 °F - 64.9 °F 87% 29.88 in 7.0 mi South 8.1 mph - 0.23 in Rain , Thunderstorm Light Thunderstorms and Rain
10:11 PM 70.0 °F - 68.0 °F 93% 29.88 in 10.0 mi South 10.4 mph - 0.01 in Rain , Thunderstorm Light Rain
10:23 PM 69.1 °F - 66.9 °F 93% 29.88 in 10.0 mi South 12.7 mph 19.6 mph 0.02 in Rain Light Rain
10:30 PM 68.0 °F - 66.0 °F 93% 29.89 in 8.0 mi SSW 10.4 mph - 0.05 in Rain , Thunderstorm Rain
10:53 PM 64.9 °F - 64.0 °F 97% 29.91 in 3.0 mi WSW 10.4 mph - 0.21 in Rain , Thunderstorm Rain
11:22 PM 63.0 °F - 63.0 °F 100% 29.92 in 5.0 mi SW 9.2 mph - 0.10 in Rain Rain
11:53 PM 63.0 °F - 63.0 °F 100% 29.88 in 8.0 mi South 5.8 mph - 0.24 in Rain Rain